TimeAWST,TemperatureF,Dew PointF,Humidity,Sea Level PressureIn,VisibilityMPH,Wind Direction,Wind SpeedMPH,Gust SpeedMPH,PrecipitationIn,Events,Conditions,WindDirDegrees,DateUTC
12:00 AM,87,79,72,29.75,,ENE,16.1,,,,,60,2012-12-23 16:00:00
12:00 AM,87.8,78.8,75,29.74,6.2,ENE,16.1,-,N/A,Rain,Light Rain,60,2012-12-23 16:00:00
12:27 AM,84.2,78.8,84,29.68,-9999.0,WNW,18.4,-,N/A,Rain,Light Rain,290,2012-12-23 16:27:00
12:30 AM,84.2,75.2,74,29.68,-9999.0,WNW,18.4,-,N/A,Rain,Light Rain Showers,290,2012-12-23 16:30:00
1:00 AM,86.0,75.2,70,29.65,6.2,WNW,9.2,-,N/A,,Unknown,290,2012-12-23 17:00:00
1:30 AM,86.0,73.4,66,29.62,6.2,West,15.0,-,N/A,,Unknown,280,2012-12-23 17:30:00
2:00 AM,85,74,63,29.65,,WNW,13.8,,,,,300,2012-12-23 18:00:00
2:00 AM,86.0,73.4,66,29.65,6.2,WNW,13.8,-,N/A,,Unknown,300,2012-12-23 18:00:00
2:30 AM,86.0,73.4,66,29.65,6.2,South,18.4,-,N/A,,Unknown,180,2012-12-23 18:30:00
3:00 AM,85,74,63,29.65,,West,6.9,,,,,270,2012-12-23 19:00:00
3:00 AM,86.0,75.2,70,29.62,6.2,West,6.9,-,N/A,,Unknown,270,2012-12-23 19:00:00
3:30 AM,86.0,75.2,70,29.65,6.2,WSW,8.1,-,N/A,,Unknown,250,2012-12-23 19:30:00
4:00 AM,86.0,73.4,66,29.65,6.2,ESE,6.9,-,N/A,,Unknown,110,2012-12-23 20:00:00
4:30 AM,86.0,73.4,66,29.68,6.2,South,8.1,-,N/A,,Unknown,190,2012-12-23 20:30:00
5:00 AM,83,74,69,29.69,,SW,1.2,,,,,230,2012-12-23 21:00:00
5:00 AM,82.4,75.2,79,29.68,6.2,SW,1.2,-,N/A,,Unknown,230,2012-12-23 21:00:00
5:30 AM,82.4,73.4,74,29.68,6.2,NNW,3.5,-,N/A,,Unknown,330,2012-12-23 21:30:00
6:00 AM,83,75,72,29.70,12,NW,5.8,,,,Haze,310,2012-12-23 22:00:00
6:00 AM,82.4,75.2,79,29.68,-9999.0,NW,5.8,-,N/A,,Clear,310,2012-12-23 22:00:00
6:30 AM,84.2,77.0,79,29.71,-9999.0,West,4.6,-,N/A,,Clear,270,2012-12-23 22:30:00
7:00 AM,86.0,75.2,70,29.71,-9999.0,West,4.6,-,N/A,,Clear,270,2012-12-23 23:00:00
7:27 AM,87.8,75.2,66,29.74,6.2,East,17.3,-,N/A,,Scattered Clouds,80,2012-12-23 23:27:00
8:00 AM,91,74,49,29.76,,NE,12.7,,,,,50,2012-12-24 00:00:00
8:00 AM,91.4,73.4,55,29.74,-9999.0,NE,12.7,-,N/A,,Clear,50,2012-12-24 00:00:00
8:30 AM,91.4,75.2,59,29.74,-9999.0,NNE,9.2,-,N/A,,Clear,20,2012-12-24 00:30:00
9:00 AM,97,73,37,29.72,19,NW,3.5,,,,Partly Cloudy,320,2012-12-24 01:00:00
9:00 AM,96.8,73.4,47,29.71,-9999.0,NW,3.5,-,N/A,,Clear,320,2012-12-24 01:00:00
9:30 AM,98.6,71.6,42,29.71,-9999.0,WSW,6.9,-,N/A,,Clear,240,2012-12-24 01:30:00
10:00 AM,98.6,77.0,50,29.71,-9999.0,North,10.4,-,N/A,,Clear,10,2012-12-24 02:00:00
10:30 AM,96.8,75.2,50,29.71,-9999.0,NNW,15.0,-,N/A,,Clear,340,2012-12-24 02:30:00
11:00 AM,95,75,43,29.71,,North,15.0,,,,,350,2012-12-24 03:00:00
11:00 AM,95.0,75.2,53,29.71,-9999.0,North,15.0,-,N/A,,Clear,350,2012-12-24 03:00:00
11:30 AM,98.6,77.0,50,29.68,-9999.0,NNW,13.8,-,N/A,,Clear,340,2012-12-24 03:30:00
12:00 PM,99,76,39,29.68,19,NNW,11.5,,,,Partly Cloudy,330,2012-12-24 04:00:00
12:00 PM,98.6,77.0,50,29.65,-9999.0,NNW,11.5,-,N/A,,Clear,330,2012-12-24 04:00:00
12:30 PM,96.8,77.0,53,29.65,-9999.0,NW,15.0,-,N/A,,Clear,320,2012-12-24 04:30:00
1:00 PM,98.6,75.2,47,29.65,-9999.0,NW,15.0,-,N/A,,Clear,320,2012-12-24 05:00:00
1:30 PM,96.8,78.8,56,29.65,-9999.0,NW,17.3,-,N/A,,Clear,320,2012-12-24 05:30:00
2:00 PM,95,77,48,29.66,,NNW,18.4,,,,,330,2012-12-24 06:00:00
2:00 PM,95.0,77.0,56,29.65,-9999.0,NNW,18.4,-,N/A,,Clear,330,2012-12-24 06:00:00
2:30 PM,98.6,75.2,47,29.62,-9999.0,NW,19.6,-,N/A,,Clear,320,2012-12-24 06:30:00
3:00 PM,100,72,31,29.64,19,NNW,18.4,,,,Partly Cloudy,330,2012-12-24 07:00:00
3:00 PM,100.4,71.6,39,29.62,-9999.0,NNW,18.4,-,N/A,,Clear,330,2012-12-24 07:00:00
3:30 PM,98.6,75.2,47,29.62,6.2,NNW,20.7,-,N/A,,Unknown,330,2012-12-24 07:30:00
4:00 PM,95.0,75.2,53,29.62,6.2,NNW,19.6,-,N/A,,Unknown,330,2012-12-24 08:00:00
4:30 PM,95.0,73.4,49,29.62,6.2,NW,19.6,-,N/A,,Unknown,310,2012-12-24 08:30:00
5:00 PM,94,72,40,29.63,,NW,19.6,,,,,310,2012-12-24 09:00:00
5:00 PM,95.0,73.4,49,29.62,6.2,NW,19.6,-,N/A,,Unknown,310,2012-12-24 09:00:00
5:30 PM,93.2,71.6,49,29.62,6.2,NW,18.4,-,N/A,,Unknown,310,2012-12-24 09:30:00
6:00 PM,93,73,43,29.65,,West,16.1,,,,,280,2012-12-24 10:00:00
6:00 PM,93.2,73.4,52,29.65,6.2,West,16.1,-,N/A,,Unknown,280,2012-12-24 10:00:00
6:30 PM,91.4,75.2,59,29.65,6.2,WNW,16.1,-,N/A,,Unknown,290,2012-12-24 10:30:00
7:00 PM,89.6,77.0,66,29.65,6.2,WNW,13.8,-,N/A,,Unknown,290,2012-12-24 11:00:00
7:30 PM,87.8,77.0,70,29.65,6.2,WNW,11.5,-,N/A,,Unknown,290,2012-12-24 11:30:00
8:00 PM,88,78,66,29.68,,WNW,11.5,,,,,290,2012-12-24 12:00:00
8:00 PM,87.8,78.8,75,29.68,6.2,WNW,11.5,-,N/A,,Unknown,290,2012-12-24 12:00:00
8:30 PM,87.8,78.8,75,29.68,6.2,West,12.7,-,N/A,,Unknown,280,2012-12-24 12:30:00
9:00 PM,87,78,69,29.69,,West,12.7,,,,,280,2012-12-24 13:00:00
9:00 PM,87.8,78.8,75,29.68,6.2,West,12.7,-,N/A,,Unknown,280,2012-12-24 13:00:00
9:30 PM,86.0,77.0,74,29.68,6.2,West,11.5,-,N/A,,Unknown,270,2012-12-24 13:30:00
10:00 PM,86.0,77.0,74,29.68,6.2,WSW,8.1,-,N/A,,Unknown,250,2012-12-24 14:00:00
10:30 PM,86.0,77.0,74,29.71,6.2,West,8.1,-,N/A,,Unknown,270,2012-12-24 14:30:00
11:00 PM,86,77,68,29.71,,WSW,9.2,,,,,240,2012-12-24 15:00:00
11:00 PM,86.0,77.0,74,29.71,6.2,WSW,9.2,-,N/A,,Unknown,240,2012-12-24 15:00:00
11:30 PM,86.0,77.0,74,29.68,6.2,West,8.1,-,N/A,,Unknown,270,2012-12-24 15:30:00